Simultaneous Nadir Overpasses (SNOs) Predictions

Prediction of SNOs between TERRA and METOP-C Satellite Orbit:

Table of predicted SNOs for the next 14.0 days since TLE Epoch: 11/4/2023
Index Date (TERRA) Time (TERRA) Lat,Lon (TERRA) SZA (TERRA ) Date (METOP-C) Time (METOP-C) Lat,Lon (METOP-C) SZA (METOP-C ) Distance(km) Time Diff (sec)
1 11/04/2023 05:07:06 80.27, 128.45 96.71 11/04/2023 05:06:09 80.27, 128.55 96.70 1.83 57
2 11/04/2023 05:56:27 -80.33, -63.31 83.18 11/04/2023 05:56:49 -80.32, -63.45 83.19 2.75 22
3 11/06/2023 20:28:11 -80.24, 77.94 82.54 11/06/2023 20:27:13 -80.24, 77.97 82.55 0.56 58
4 11/06/2023 21:17:29 80.33,-113.56 97.63 11/06/2023 21:17:49 80.33,-113.59 97.63 0.67 20
5 11/09/2023 11:49:12 80.22, 27.46 98.19 11/09/2023 11:48:13 80.21, 27.42 98.17 0.91 59
6 11/09/2023 12:38:32 -80.32,-163.99 81.64 11/09/2023 12:38:51 -80.33,-163.93 81.62 1.53 19
7 11/12/2023 03:10:16 -80.18, -23.18 81.15 11/12/2023 03:09:17 -80.18, -23.28 81.18 1.97 59
8 11/12/2023 03:59:32 80.34, 145.90 99.12 11/12/2023 03:59:50 80.35, 146.07 99.15 3.24 18
9 11/14/2023 18:31:15 80.21, -73.22 99.59 11/14/2023 18:30:15 80.22, -73.07 99.59 2.89 60
10 11/14/2023 19:20:35 -80.31, 95.32 80.25 11/14/2023 19:20:54 -80.30, 95.27 80.25 1.04 19
11 11/17/2023 09:52:17 -80.18,-123.71 79.80 11/17/2023 09:51:18 -80.19,-123.62 79.81 1.96 59



Historial Predications of SNOs between TERRA and METOP-C
